FENGYUN 1C DEB, 30326

Orbit data source: Space-Track

FENGYUN 1C DEB, 30326 is space debris in SSO originally from a launch on Mon, 10 May 1999 UTC launched from the Taiyaun Space Center, China (TSC). Fengyun 1C debris stems from the Chinese weather satellite Fengyun-1C, which was intentionally destroyed by a Chinese anti-satellite missile in 2007. This event dramatically increased the amount of space debris, with thousands of trackable fragments posing hazards to satellites and human spaceflight. The Fengyun 1C debris cloud has become a focal point in discussions about space sustainability and the need for international regulations to prevent the creation of new debris.

Loading next visibility...
Identifier
30326, 1999-025AAM
Orbit
SSO
Country
Flag of CNCN / PRC
Related business
Manufacturer
Unknown
Mission
Spacecraft
Bus & Motor
Unknown
Mass
Unknown
Launch date (UTC)
1999-05-10 (26 years ago)
Launch vehicle
Unknown
Launch site
Taiyaun Space Center, China (TSC)
Object type
Payload
Rocket body
Debris
Shape & HBR
Unknown
Radar Cross Section
Small (<0.1 m²)

Expand to show TLE details & history
Last TLE update: 17 hours ago

TLE from 17 hours ago
0 FENGYUN 1C DEB
1 30326U 99025AAM 25260.11909721  .00000100  00000-0  11422-3 0  9998
2 30326  98.6596 154.0082 0140657 266.4235  92.0827 13.85425450942561
Epoch: 2025-09-17T02:51Z
TLE epoch observation values (Epoch: 2025-09-17T02:51:29.998Z)
Latitude
-0.00007°
Longitude
114.83359°
Altitude
952.765 km
Speed
7.373 km/s
True Right ascension
10h 16m 01s
True Declination
0° 00' 00"
Sunlit
Object was in daylight at epoch
Visualization orbit readout
Latitude
Unknown
Longitude
Unknown
Altitude
Unknown
Speed
Unknown
Apparent Right ascension
Unknown
Apparent Declination
Unknown
Sunlit
N/A
Visualization observer readout
Local Sidereal Time
12:32:56
Azimuth
Unknown
Elevation
Unknown
Doppler factor
Unknown
Orbital elements
Apogee altitude
1,044.87 km
Perigee altitude
838.946 km
Semi-major axis
7,320.045 km
Eccentricity
0.01407
Inclination
98.6596°
RAAN
154.0082°
Arg. of periapsis
266.4235°
True anomaly
93.69221°
Mean anomaly
92.0827°
Eccentric anomaly
92.88758°
Mean motion
3.46555 °/min
Orbital period
103.88 mins
BSTAR
0.00011422
Loading maneuver chart data...
Computing Atmospheric mass density...
Loading historical data...
Loading historical data...
Loading historical data...
Loading historical data...
Loading historical data...
Loading historical data...
Loading historical data...

Documentation

Showing up to 5 results
|